Tracking 22779 objects as of 12-Apr-2021
HD Live streaming from Space Station
objects crossing your sky now

STARLINK-1202

Track STARLINK-1202 now!
10-day predictions
STARLINK-1202 is classified as:


NORAD ID: 45183
Int'l Code: 2020-012F
Perigee: 553.5 km
Apogee: 555.3 km
Inclination: 53.1 °
Period: 95.6 minutes
Semi major axis: 6925 km
RCS: Unknown
Launch date: February 17, 2020
Source: United States (US)
Launch site: AIR FORCE EASTERN TEST RANGE (AFETR)
aabbcc
Your satellite tracking list
Your tracking list is empty




NASA's NSSDC Master Catalog

Two Line Element Set (TLE):
1 45183U 20012F   21101.61527702  .00000725  00000-0  67551-4 0  9993
2 45183  53.0560 176.0412 0001336 158.0310 202.0737 15.06390720 64581
Source of the keplerian elements: AFSPC